Time,TemperatureF,DewpointF,PressureIn,WindDirection,WindDirectionDegrees,WindSpeedMPH,WindSpeedGustMPH,Humidity,HourlyPrecipIn,Conditions,Clouds,dailyrainin,SoftwareType,DateUTC
2013-01-05 00:00:00,28.1,19.9,29.93,SE,145,0.0,0.0,71,0.00,,,0.00,VWS V14.00,2013-01-05 05:00:00,
2013-01-05 00:01:00,28.1,20.2,29.93,SE,145,1.0,1.0,72,0.00,,,0.00,VWS V14.00,2013-01-05 05:01:00,
2013-01-05 00:03:00,27.9,20.1,29.93,SE,126,4.0,4.0,72,0.00,,,0.00,VWS V14.00,2013-01-05 05:03:00,
2013-01-05 00:08:00,27.9,20.1,29.93,SE,125,0.0,4.0,72,0.00,,,0.00,VWS V14.00,2013-01-05 05:08:00,
2013-01-05 00:13:00,27.9,20.1,29.93,SE,124,0.0,4.0,72,0.00,,,0.00,VWS V14.00,2013-01-05 05:13:00,
2013-01-05 00:18:00,27.6,19.8,29.93,SE,124,0.0,4.0,72,0.00,,,0.00,VWS V14.00,2013-01-05 05:18:00,
2013-01-05 00:23:00,27.4,19.9,29.93,SE,124,0.0,4.0,73,0.00,,,0.00,VWS V14.00,2013-01-05 05:23:00,
2013-01-05 00:28:00,27.5,19.7,29.93,NE,55,0.0,4.0,72,0.00,,,0.00,VWS V14.00,2013-01-05 05:28:00,
2013-01-05 00:30:00,27.5,20.0,29.93,NE,55,0.0,4.0,73,0.00,,,0.00,VWS V14.00,2013-01-05 05:30:00,
2013-01-05 00:33:00,27.4,19.9,29.94,NE,55,0.0,0.0,73,0.00,,,0.00,VWS V14.00,2013-01-05 05:33:00,
2013-01-05 00:38:00,27.1,19.6,29.94,NE,55,0.0,2.0,73,0.00,,,0.00,VWS V14.00,2013-01-05 05:38:00,
2013-01-05 00:44:00,26.8,19.6,29.94,NE,55,0.0,2.0,74,0.00,,,0.00,VWS V14.00,2013-01-05 05:44:00,
2013-01-05 00:49:00,26.4,19.6,29.94,NE,55,0.0,2.0,75,0.00,,,0.00,VWS V14.00,2013-01-05 05:49:00,
2013-01-05 00:54:00,26.4,19.9,29.94,SSE,147,0.0,5.0,76,0.00,,,0.00,VWS V14.00,2013-01-05 05:54:00,
2013-01-05 00:59:00,26.3,19.8,29.94,East,85,0.0,5.0,76,0.00,,,0.00,VWS V14.00,2013-01-05 05:59:00,
2013-01-05 01:00:00,26.2,19.7,29.94,East,85,0.0,5.0,76,0.00,,,0.00,VWS V14.00,2013-01-05 06:00:00,
2013-01-05 01:04:00,26.1,19.6,29.94,East,85,0.0,0.0,76,0.00,,,0.00,VWS V14.00,2013-01-05 06:04:00,
2013-01-05 01:09:00,25.8,19.3,29.94,East,85,0.0,2.0,76,0.00,,,0.00,VWS V14.00,2013-01-05 06:09:00,
2013-01-05 01:14:00,25.6,19.1,29.95,East,85,0.0,2.0,76,0.00,,,0.00,VWS V14.00,2013-01-05 06:14:00,
2013-01-05 01:19:00,25.4,19.2,29.95,East,85,0.0,2.0,77,0.00,,,0.00,VWS V14.00,2013-01-05 06:19:00,
2013-01-05 01:24:00,25.2,19.0,29.95,East,85,0.0,2.0,77,0.00,,,0.00,VWS V14.00,2013-01-05 06:24:00,
2013-01-05 01:29:00,25.1,18.9,29.96,East,85,0.0,2.0,77,0.00,,,0.00,VWS V14.00,2013-01-05 06:29:00,
2013-01-05 01:30:00,25.1,18.9,29.96,East,85,0.0,2.0,77,0.00,,,0.00,VWS V14.00,2013-01-05 06:30:00,
2013-01-05 01:34:00,25.1,19.2,29.96,East,100,0.0,2.0,78,0.00,,,0.00,VWS V14.00,2013-01-05 06:34:00,
2013-01-05 01:39:00,25.3,19.1,29.96,East,100,0.0,2.0,77,0.00,,,0.00,VWS V14.00,2013-01-05 06:39:00,
2013-01-05 01:44:00,25.3,19.1,29.97,East,100,0.0,2.0,77,0.00,,,0.00,VWS V14.00,2013-01-05 06:44:00,
2013-01-05 01:49:00,25.1,18.9,29.97,East,100,0.0,2.0,77,0.00,,,0.00,VWS V14.00,2013-01-05 06:49:00,
2013-01-05 01:54:00,24.9,18.7,29.97,East,100,0.0,2.0,77,0.00,,,0.00,VWS V14.00,2013-01-05 06:54:00,
2013-01-05 02:00:00,24.6,18.7,29.97,East,100,0.0,0.0,78,0.00,,,0.00,VWS V14.00,2013-01-05 07:00:00,
2013-01-05 02:05:00,24.5,18.9,29.97,East,100,0.0,1.0,79,0.00,,,0.00,VWS V14.00,2013-01-05 07:05:00,
2013-01-05 02:10:00,24.4,18.8,29.97,ESE,105,0.0,2.0,79,0.00,,,0.00,VWS V14.00,2013-01-05 07:10:00,
2013-01-05 02:15:00,24.5,18.9,29.98,East,98,0.0,4.0,79,0.00,,,0.00,VWS V14.00,2013-01-05 07:15:00,
2013-01-05 02:20:00,24.5,18.9,29.98,East,98,0.0,4.0,79,0.00,,,0.00,VWS V14.00,2013-01-05 07:20:00,
2013-01-05 02:25:00,24.5,18.9,29.98,East,98,0.0,4.0,79,0.00,,,0.00,VWS V14.00,2013-01-05 07:25:00,
2013-01-05 02:30:00,24.5,18.6,29.98,East,98,0.0,0.0,78,0.00,,,0.00,VWS V14.00,2013-01-05 07:30:00,
2013-01-05 02:35:00,24.3,18.7,29.98,East,98,0.0,0.0,79,0.00,,,0.00,VWS V14.00,2013-01-05 07:35:00,
2013-01-05 02:40:00,24.2,18.9,29.99,East,98,1.0,2.0,80,0.00,,,0.00,VWS V14.00,2013-01-05 07:40:00,
2013-01-05 02:46:00,23.8,18.5,29.99,East,98,1.0,2.0,80,0.00,,,0.00,VWS V14.00,2013-01-05 07:46:00,
2013-01-05 02:51:00,23.6,18.6,29.99,East,98,0.0,2.0,81,0.00,,,0.00,VWS V14.00,2013-01-05 07:51:00,
2013-01-05 02:56:00,23.8,18.8,29.99,East,96,0.0,4.0,81,0.00,,,0.00,VWS V14.00,2013-01-05 07:56:00,
2013-01-05 03:00:00,23.9,18.9,29.99,East,96,0.0,4.0,81,0.00,,,0.00,VWS V14.00,2013-01-05 08:00:00,
2013-01-05 03:01:00,23.9,18.9,29.99,East,96,0.0,0.0,81,0.00,,,0.00,VWS V14.00,2013-01-05 08:01:00,
2013-01-05 03:06:00,24.1,19.4,29.99,East,96,0.0,1.0,82,0.00,,,0.00,VWS V14.00,2013-01-05 08:06:00,
2013-01-05 03:11:00,24.2,19.5,30.00,East,96,0.0,1.0,82,0.00,,,0.00,VWS V14.00,2013-01-05 08:11:00,
2013-01-05 03:16:00,24.3,19.6,30.00,East,96,0.0,1.0,82,0.00,,,0.00,VWS V14.00,2013-01-05 08:16:00,
2013-01-05 03:21:00,24.5,19.8,30.00,East,96,0.0,1.0,82,0.00,,,0.00,VWS V14.00,2013-01-05 08:21:00,
2013-01-05 03:27:00,24.5,19.8,30.00,East,96,0.0,1.0,82,0.00,,,0.00,VWS V14.00,2013-01-05 08:27:00,
2013-01-05 03:30:00,24.6,19.9,30.00,East,96,0.0,1.0,82,0.00,,,0.00,VWS V14.00,2013-01-05 08:30:00,
2013-01-05 03:32:00,24.7,20.0,30.00,East,96,0.0,0.0,82,0.00,,,0.00,VWS V14.00,2013-01-05 08:32:00,
2013-01-05 03:37:00,24.7,20.0,30.00,East,96,0.0,0.0,82,0.00,,,0.00,VWS V14.00,2013-01-05 08:37:00,
2013-01-05 03:42:00,24.9,20.2,30.00,East,96,0.0,0.0,82,0.00,,,0.00,VWS V14.00,2013-01-05 08:42:00,
2013-01-05 03:47:00,25.0,20.3,30.00,East,96,0.0,0.0,82,0.00,,,0.00,VWS V14.00,2013-01-05 08:47:00,
2013-01-05 03:52:00,25.1,20.4,30.00,East,96,0.0,0.0,82,0.00,,,0.00,VWS V14.00,2013-01-05 08:52:00,
2013-01-05 03:57:00,25.1,20.4,30.00,East,96,0.0,0.0,82,0.00,,,0.00,VWS V14.00,2013-01-05 08:57:00,
2013-01-05 04:00:00,25.1,20.4,30.01,East,96,0.0,0.0,82,0.00,,,0.00,VWS V14.00,2013-01-05 09:00:00,
2013-01-05 04:02:00,25.1,20.4,30.00,East,96,0.0,0.0,82,0.00,,,0.00,VWS V14.00,2013-01-05 09:02:00,
2013-01-05 04:08:00,25.1,20.1,30.00,East,96,0.0,0.0,81,0.00,,,0.00,VWS V14.00,2013-01-05 09:08:00,
2013-01-05 04:13:00,25.2,20.5,30.00,East,96,0.0,0.0,82,0.00,,,0.00,VWS V14.00,2013-01-05 09:13:00,
2013-01-05 04:18:00,25.2,20.5,30.01,East,96,0.0,0.0,82,0.00,,,0.00,VWS V14.00,2013-01-05 09:18:00,
2013-01-05 04:23:00,25.3,20.9,30.01,East,96,0.0,0.0,83,0.00,,,0.00,VWS V14.00,2013-01-05 09:23:00,
2013-01-05 04:28:00,25.4,21.0,30.01,East,96,0.0,0.0,83,0.00,,,0.00,VWS V14.00,2013-01-05 09:28:00,
2013-01-05 04:30:00,25.4,21.0,30.01,East,96,0.0,0.0,83,0.00,,,0.00,VWS V14.00,2013-01-05 09:30:00,
2013-01-05 04:33:00,25.4,21.0,30.01,East,96,0.0,0.0,83,0.00,,,0.00,VWS V14.00,2013-01-05 09:33:00,
2013-01-05 04:38:00,25.5,21.4,30.01,East,96,0.0,0.0,84,0.00,,,0.00,VWS V14.00,2013-01-05 09:38:00,
2013-01-05 04:43:00,25.5,21.4,30.01,East,96,0.0,0.0,84,0.00,,,0.00,VWS V14.00,2013-01-05 09:43:00,
2013-01-05 04:49:00,25.3,20.9,30.01,East,96,0.0,0.0,83,0.00,,,0.00,VWS V14.00,2013-01-05 09:49:00,
2013-01-05 04:54:00,25.2,20.8,30.01,East,96,0.0,0.0,83,0.00,,,0.00,VWS V14.00,2013-01-05 09:54:00,
2013-01-05 04:59:00,25.1,20.7,30.02,East,96,0.0,0.0,83,0.00,,,0.00,VWS V14.00,2013-01-05 09:59:00,
2013-01-05 05:00:00,25.1,20.7,30.02,East,96,0.0,0.0,83,0.00,,,0.00,VWS V14.00,2013-01-05 10:00:00,
2013-01-05 05:04:00,25.0,20.6,30.02,East,96,0.0,0.0,83,0.00,,,0.00,VWS V14.00,2013-01-05 10:04:00,
2013-01-05 05:09:00,24.9,20.5,30.02,East,96,0.0,0.0,83,0.00,,,0.00,VWS V14.00,2013-01-05 10:09:00,
2013-01-05 05:14:00,24.8,20.4,30.02,East,96,0.0,0.0,83,0.00,,,0.00,VWS V14.00,2013-01-05 10:14:00,
2013-01-05 05:19:00,24.5,20.1,30.03,East,96,0.0,0.0,83,0.00,,,0.00,VWS V14.00,2013-01-05 10:19:00,
2013-01-05 05:24:00,24.4,20.3,30.03,East,96,0.0,0.0,84,0.00,,,0.00,VWS V14.00,2013-01-05 10:24:00,
2013-01-05 05:29:00,24.5,20.6,30.04,East,96,0.0,0.0,85,0.00,,,0.00,VWS V14.00,2013-01-05 10:29:00,
2013-01-05 05:30:00,24.5,20.6,30.04,East,96,0.0,0.0,85,0.00,,,0.00,VWS V14.00,2013-01-05 10:30:00,
2013-01-05 05:35:00,24.5,20.6,30.04,East,96,0.0,0.0,85,0.00,,,0.00,VWS V14.00,2013-01-05 10:35:00,
2013-01-05 05:40:00,24.4,20.5,30.05,East,96,0.0,0.0,85,0.00,,,0.00,VWS V14.00,2013-01-05 10:40:00,
2013-01-05 05:45:00,24.3,20.5,30.05,East,96,0.0,0.0,85,0.00,,,0.00,VWS V14.00,2013-01-05 10:45:00,
2013-01-05 05:50:00,24.3,20.5,30.06,East,96,0.0,0.0,85,0.00,,,0.00,VWS V14.00,2013-01-05 10:50:00,
2013-01-05 05:55:00,24.4,20.8,30.06,East,96,0.0,0.0,86,0.00,,,0.00,VWS V14.00,2013-01-05 10:55:00,
2013-01-05 06:00:00,24.6,21.0,30.06,East,96,0.0,0.0,86,0.00,,,0.00,VWS V14.00,2013-01-05 11:00:00,
2013-01-05 06:05:00,24.9,21.3,30.06,East,96,0.0,0.0,86,0.00,,,0.00,VWS V14.00,2013-01-05 11:05:00,
2013-01-05 06:10:00,25.2,21.6,30.06,East,96,0.0,2.0,86,0.00,,,0.00,VWS V14.00,2013-01-05 11:10:00,
2013-01-05 06:15:00,25.5,21.9,30.07,East,96,0.0,2.0,86,0.00,,,0.00,VWS V14.00,2013-01-05 11:15:00,
2013-01-05 06:20:00,25.6,21.7,30.07,East,96,0.0,2.0,85,0.00,,,0.00,VWS V14.00,2013-01-05 11:20:00,
2013-01-05 06:25:00,25.7,21.5,30.08,East,96,0.0,2.0,84,0.00,,,0.00,VWS V14.00,2013-01-05 11:25:00,
2013-01-05 06:30:00,25.7,21.3,30.08,East,96,0.0,0.0,83,0.00,,,0.00,VWS V14.00,2013-01-05 11:30:00,
2013-01-05 06:36:00,25.6,21.5,30.09,East,96,0.0,0.0,84,0.00,,,0.00,VWS V14.00,2013-01-05 11:36:00,
2013-01-05 06:41:00,25.4,21.2,30.09,East,96,0.0,1.0,84,0.00,,,0.00,VWS V14.00,2013-01-05 11:41:00,
2013-01-05 06:46:00,25.4,21.2,30.10,East,96,0.0,2.0,84,0.00,,,0.00,VWS V14.00,2013-01-05 11:46:00,
2013-01-05 06:51:00,25.2,21.0,30.11,East,96,0.0,2.0,84,0.00,,,0.00,VWS V14.00,2013-01-05 11:51:00,
2013-01-05 06:56:00,25.2,21.3,30.11,East,96,0.0,2.0,85,0.00,,,0.00,VWS V14.00,2013-01-05 11:56:00,
2013-01-05 07:00:00,25.2,21.3,30.10,East,96,0.0,2.0,85,0.00,,,0.00,VWS V14.00,2013-01-05 12:00:00,
2013-01-05 07:01:00,25.2,21.3,30.10,East,96,0.0,1.0,85,0.00,,,0.00,VWS V14.00,2013-01-05 12:01:00,
2013-01-05 07:06:00,25.5,21.6,30.11,East,96,0.0,2.0,85,0.00,,,0.00,VWS V14.00,2013-01-05 12:06:00,
2013-01-05 07:11:00,25.5,21.4,30.11,East,96,0.0,2.0,84,0.00,,,0.00,VWS V14.00,2013-01-05 12:11:00,
2013-01-05 07:16:00,25.4,21.2,30.11,East,96,0.0,2.0,84,0.00,,,0.00,VWS V14.00,2013-01-05 12:16:00,
2013-01-05 07:21:00,25.2,21.0,30.11,East,96,0.0,2.0,84,0.00,,,0.00,VWS V14.00,2013-01-05 12:21:00,
2013-01-05 07:26:00,25.0,21.1,30.11,East,96,0.0,2.0,85,0.00,,,0.00,VWS V14.00,2013-01-05 12:26:00,
2013-01-05 07:30:00,24.9,21.0,30.11,East,96,0.0,2.0,85,0.00,,,0.00,VWS V14.00,2013-01-05 12:30:00,
2013-01-05 07:31:00,24.8,20.9,30.11,East,96,0.0,0.0,85,0.00,,,0.00,VWS V14.00,2013-01-05 12:31:00,
2013-01-05 07:37:00,24.5,20.6,30.12,East,96,0.0,0.0,85,0.00,,,0.00,VWS V14.00,2013-01-05 12:37:00,
2013-01-05 07:42:00,24.2,20.4,30.13,East,96,0.0,0.0,85,0.00,,,0.00,VWS V14.00,2013-01-05 12:42:00,
2013-01-05 07:47:00,23.9,20.3,30.13,East,96,0.0,0.0,86,0.00,,,0.00,VWS V14.00,2013-01-05 12:47:00,
2013-01-05 07:52:00,23.8,20.5,30.13,East,96,0.0,0.0,87,0.00,,,0.00,VWS V14.00,2013-01-05 12:52:00,
2013-01-05 07:57:00,24.1,21.3,30.13,East,96,0.0,0.0,89,0.00,,,0.00,VWS V14.00,2013-01-05 12:57:00,
2013-01-05 08:00:00,24.2,21.2,30.14,East,96,0.0,0.0,88,0.00,,,0.00,VWS V14.00,2013-01-05 13:00:00,
2013-01-05 08:02:00,24.3,21.3,30.14,East,96,0.0,0.0,88,0.00,,,0.00,VWS V14.00,2013-01-05 13:02:00,
2013-01-05 08:07:00,24.4,21.4,30.14,East,96,0.0,0.0,88,0.00,,,0.00,VWS V14.00,2013-01-05 13:07:00,
2013-01-05 08:12:00,24.5,21.5,30.15,East,96,0.0,0.0,88,0.00,,,0.00,VWS V14.00,2013-01-05 13:12:00,
2013-01-05 08:17:00,24.8,22.0,30.15,East,96,0.0,0.0,89,0.00,,,0.00,VWS V14.00,2013-01-05 13:17:00,
2013-01-05 08:22:00,25.1,22.3,30.16,East,96,0.0,0.0,89,0.00,,,0.00,VWS V14.00,2013-01-05 13:22:00,
2013-01-05 08:27:00,25.4,22.4,30.16,East,96,0.0,0.0,88,0.00,,,0.00,VWS V14.00,2013-01-05 13:27:00,
2013-01-05 08:30:00,25.5,22.7,30.16,East,96,0.0,0.0,89,0.00,,,0.00,VWS V14.00,2013-01-05 13:30:00,
2013-01-05 08:32:00,25.7,22.9,30.16,East,96,0.0,0.0,89,0.00,,,0.00,VWS V14.00,2013-01-05 13:32:00,
2013-01-05 08:37:00,26.0,22.9,30.17,East,96,0.0,0.0,88,0.00,,,0.00,VWS V14.00,2013-01-05 13:37:00,
2013-01-05 08:42:00,26.4,23.3,30.17,East,96,0.0,0.0,88,0.00,,,0.00,VWS V14.00,2013-01-05 13:42:00,
2013-01-05 08:47:00,27.2,23.6,30.17,East,96,0.0,2.0,86,0.00,,,0.00,VWS V14.00,2013-01-05 13:47:00,
2013-01-05 08:52:00,28.1,24.2,30.18,East,96,0.0,2.0,85,0.00,,,0.00,VWS V14.00,2013-01-05 13:52:00,
2013-01-05 08:57:00,28.9,25.0,30.18,East,96,0.0,2.0,85,0.00,,,0.00,VWS V14.00,2013-01-05 13:57:00,
2013-01-05 09:00:00,29.3,24.8,30.18,East,96,0.0,2.0,83,0.00,,,0.00,VWS V14.00,2013-01-05 14:00:00,
2013-01-05 09:02:00,29.9,25.1,30.17,East,96,0.0,0.0,82,0.00,,,0.00,VWS V14.00,2013-01-05 14:02:00,
2013-01-05 09:08:00,30.7,25.9,30.17,East,96,2.0,2.0,82,0.00,,,0.00,VWS V14.00,2013-01-05 14:08:00,
2013-01-05 09:13:00,31.4,25.4,30.17,East,96,0.0,2.0,78,0.00,,,0.00,VWS V14.00,2013-01-05 14:13:00,
2013-01-05 09:18:00,32.0,25.0,30.17,East,96,0.0,2.0,75,0.00,,,0.00,VWS V14.00,2013-01-05 14:18:00,
2013-01-05 09:23:00,32.4,24.7,30.17,East,96,0.0,2.0,73,0.00,,,0.00,VWS V14.00,2013-01-05 14:23:00,
2013-01-05 09:28:00,32.6,24.6,30.18,East,96,0.0,2.0,72,0.00,,,0.00,VWS V14.00,2013-01-05 14:28:00,
2013-01-05 09:30:00,32.7,25.0,30.18,East,96,0.0,2.0,73,0.00,,,0.00,VWS V14.00,2013-01-05 14:30:00,
2013-01-05 09:33:00,32.8,25.1,30.18,East,96,0.0,4.0,73,0.00,,,0.00,VWS V14.00,2013-01-05 14:33:00,
2013-01-05 09:38:00,32.9,24.5,30.18,East,96,0.0,4.0,71,0.00,,,0.00,VWS V14.00,2013-01-05 14:38:00,
2013-01-05 09:43:00,33.0,25.3,30.19,East,96,0.0,4.0,73,0.00,,,0.00,VWS V14.00,2013-01-05 14:43:00,
2013-01-05 09:48:00,32.9,25.2,30.19,East,96,0.0,4.0,73,0.00,,,0.00,VWS V14.00,2013-01-05 14:48:00,
2013-01-05 09:53:00,33.0,25.3,30.20,East,96,0.0,4.0,73,0.00,,,0.00,VWS V14.00,2013-01-05 14:53:00,
2013-01-05 09:58:00,33.2,25.2,30.20,East,96,0.0,4.0,72,0.00,,,0.00,VWS V14.00,2013-01-05 14:58:00,
2013-01-05 10:00:00,33.2,25.2,30.20,East,96,0.0,4.0,72,0.00,,,0.00,VWS V14.00,2013-01-05 15:00:00,
2013-01-05 10:03:00,33.6,25.5,30.20,East,96,0.0,1.0,72,0.00,,,0.00,VWS V14.00,2013-01-05 15:03:00,
2013-01-05 10:08:00,34.4,26.7,30.21,East,96,0.0,1.0,73,0.00,,,0.00,VWS V14.00,2013-01-05 15:08:00,
2013-01-05 10:14:00,35.2,26.1,30.21,East,96,0.0,1.0,69,0.00,,,0.00,VWS V14.00,2013-01-05 15:14:00,
2013-01-05 10:19:00,35.9,26.4,30.21,ENE,73,0.0,4.0,68,0.00,,,0.00,VWS V14.00,2013-01-05 15:19:00,
2013-01-05 10:24:00,36.4,26.1,30.21,South,184,0.0,7.0,66,0.00,,,0.00,VWS V14.00,2013-01-05 15:24:00,
2013-01-05 10:29:00,36.7,26.1,30.21,South,184,1.0,7.0,65,0.00,,,0.00,VWS V14.00,2013-01-05 15:29:00,
2013-01-05 10:30:00,36.8,26.1,30.21,South,184,1.0,7.0,65,0.00,,,0.00,VWS V14.00,2013-01-05 15:30:00,
2013-01-05 10:34:00,37.0,27.1,30.21,South,184,0.0,2.0,67,0.00,,,0.00,VWS V14.00,2013-01-05 15:34:00,
2013-01-05 10:39:00,36.9,25.9,30.21,South,173,2.0,5.0,64,0.00,,,0.00,VWS V14.00,2013-01-05 15:39:00,
2013-01-05 10:44:00,36.9,25.9,30.22,ESE,121,0.0,5.0,64,0.00,,,0.00,VWS V14.00,2013-01-05 15:44:00,
2013-01-05 10:49:00,37.1,26.8,30.22,ESE,121,0.0,5.0,66,0.00,,,0.00,VWS V14.00,2013-01-05 15:49:00,
2013-01-05 10:54:00,37.5,26.1,30.22,NNW,333,1.0,5.0,63,0.00,,,0.00,VWS V14.00,2013-01-05 15:54:00,
2013-01-05 10:59:00,38.2,26.3,30.22,ESE,116,1.0,5.0,62,0.00,,,0.00,VWS V14.00,2013-01-05 15:59:00,
2013-01-05 11:00:00,38.2,26.3,30.22,ESE,115,1.0,5.0,62,0.00,,,0.00,VWS V14.00,2013-01-05 16:00:00,
2013-01-05 11:04:00,38.7,26.4,30.22,North,5,2.0,5.0,61,0.00,,,0.00,VWS V14.00,2013-01-05 16:04:00,
2013-01-05 11:09:00,38.7,26.8,30.22,East,80,0.0,7.0,62,0.00,,,0.00,VWS V14.00,2013-01-05 16:09:00,
2013-01-05 11:15:00,38.8,27.3,30.22,West,281,0.0,7.0,63,0.00,,,0.00,VWS V14.00,2013-01-05 16:15:00,
2013-01-05 11:20:00,39.0,27.1,30.22,NE,49,0.0,7.0,62,0.00,,,0.00,VWS V14.00,2013-01-05 16:20:00,
2013-01-05 11:25:00,39.8,27.1,30.22,East,92,1.0,7.0,60,0.00,,,0.00,VWS V14.00,2013-01-05 16:25:00,
2013-01-05 11:30:00,40.7,27.5,30.22,North,360,0.0,3.0,59,0.00,,,0.00,VWS V14.00,2013-01-05 16:30:00,
2013-01-05 11:35:00,40.7,25.8,30.22,SSW,203,2.0,10.0,55,0.01,,,0.01,VWS V14.00,2013-01-05 16:35:00,
2013-01-05 11:40:00,40.4,26.4,30.22,East,98,2.0,10.0,57,0.02,,,0.02,VWS V14.00,2013-01-05 16:40:00,
2013-01-05 11:45:00,40.1,26.1,30.23,SW,217,1.0,10.0,57,0.02,,,0.02,VWS V14.00,2013-01-05 16:45:00,
2013-01-05 11:50:00,40.0,26.4,30.22,ESE,104,0.0,10.0,58,0.02,,,0.02,VWS V14.00,2013-01-05 16:50:00,
2013-01-05 11:55:00,40.3,27.1,30.21,North,11,2.0,10.0,59,0.02,,,0.02,VWS V14.00,2013-01-05 16:55:00,
2013-01-05 12:00:00,40.6,26.6,30.21,SW,216,0.0,7.0,57,0.02,,,0.02,VWS V14.00,2013-01-05 17:00:00,
2013-01-05 12:05:00,40.7,27.1,30.20,NNE,26,1.0,7.0,58,0.02,,,0.02,VWS V14.00,2013-01-05 17:05:00,
2013-01-05 12:10:00,40.4,26.4,30.20,North,10,3.0,7.0,57,0.03,,,0.03,VWS V14.00,2013-01-05 17:10:00,
2013-01-05 12:15:00,39.8,25.8,30.19,SE,131,1.0,8.0,57,0.03,,,0.03,VWS V14.00,2013-01-05 17:15:00,
2013-01-05 12:20:00,39.4,25.9,30.19,ESE,123,1.0,8.0,58,0.03,,,0.03,VWS V14.00,2013-01-05 17:20:00,
2013-01-05 12:26:00,39.2,26.5,30.19,SSE,165,1.0,8.0,60,0.03,,,0.03,VWS V14.00,2013-01-05 17:26:00,
2013-01-05 12:30:00,39.4,26.3,30.19,WNW,298,1.0,8.0,59,0.03,,,0.03,VWS V14.00,2013-01-05 17:30:00,
2013-01-05 12:31:00,39.3,25.8,30.19,WNW,298,0.0,2.0,58,0.03,,,0.03,VWS V14.00,2013-01-05 17:31:00,
2013-01-05 12:36:00,39.5,25.5,30.19,North,5,4.0,10.0,57,0.03,,,0.03,VWS V14.00,2013-01-05 17:36:00,
2013-01-05 12:41:00,39.5,25.1,30.19,SSW,196,2.0,12.0,56,0.04,,,0.04,VWS V14.00,2013-01-05 17:41:00,
2013-01-05 12:46:00,39.8,25.8,30.19,West,260,1.0,12.0,57,0.04,,,0.04,VWS V14.00,2013-01-05 17:46:00,
2013-01-05 12:51:00,40.0,26.0,30.19,ENE,61,2.0,12.0,57,0.04,,,0.04,VWS V14.00,2013-01-05 17:51:00,
2013-01-05 12:56:00,40.0,25.1,30.19,NNE,27,1.0,12.0,55,0.04,,,0.04,VWS V14.00,2013-01-05 17:56:00,
2013-01-05 13:00:00,40.0,25.1,30.19,WNW,298,3.0,12.0,55,0.04,,,0.04,VWS V14.00,2013-01-05 18:00:00,
2013-01-05 13:01:00,40.1,25.2,30.19,WNW,288,0.0,4.0,55,0.02,,,0.04,VWS V14.00,2013-01-05 18:01:00,
2013-01-05 13:06:00,40.3,25.4,30.19,NNW,328,0.0,4.0,55,0.02,,,0.04,VWS V14.00,2013-01-05 18:06:00,
2013-01-05 13:11:00,40.4,25.1,30.18,NNW,346,1.0,8.0,54,0.02,,,0.04,VWS V14.00,2013-01-05 18:11:00,
2013-01-05 13:16:00,40.3,26.3,30.18,ENE,65,1.0,8.0,57,0.02,,,0.04,VWS V14.00,2013-01-05 18:16:00,
2013-01-05 13:21:00,40.2,25.8,30.18,NE,47,0.0,8.0,56,0.03,,,0.05,VWS V14.00,2013-01-05 18:21:00,
2013-01-05 13:27:00,40.0,25.1,30.17,NW,316,3.0,8.0,55,0.03,,,0.05,VWS V14.00,2013-01-05 18:27:00,
2013-01-05 13:30:00,39.8,25.4,30.17,NE,53,0.0,8.0,56,0.03,,,0.05,VWS V14.00,2013-01-05 18:30:00,
2013-01-05 13:32:00,39.8,25.0,30.17,SE,133,1.0,5.0,55,0.02,,,0.05,VWS V14.00,2013-01-05 18:32:00,
2013-01-05 13:37:00,39.8,25.4,30.17,NW,314,5.0,7.0,56,0.03,,,0.06,VWS V14.00,2013-01-05 18:37:00,
2013-01-05 13:42:00,39.6,25.6,30.17,SSW,205,0.0,7.0,57,0.03,,,0.06,VWS V14.00,2013-01-05 18:42:00,
2013-01-05 13:47:00,39.8,25.8,30.17,East,85,3.0,7.0,57,0.03,,,0.06,VWS V14.00,2013-01-05 18:47:00,
2013-01-05 14:00:00,39.7,25.7,30.17,NE,38,1.0,8.0,57,0.03,,,0.06,VWS V14.00,2013-01-05 19:00:00,
2013-01-05 14:30:00,39.7,25.7,30.19,SSE,167,0.0,6.0,57,0.02,,,0.06,VWS V14.00,2013-01-05 19:30:00,
2013-01-05 14:32:00,39.7,25.3,30.20,NNW,335,3.0,3.0,56,0.01,,,0.06,VWS V14.00,2013-01-05 19:32:00,
2013-01-05 14:37:00,39.7,24.9,30.20,SE,138,2.0,7.0,55,0.01,,,0.06,VWS V14.00,2013-01-05 19:37:00,
2013-01-05 14:42:00,39.5,24.7,30.20,North,5,2.0,8.0,55,0.02,,,0.07,VWS V14.00,2013-01-05 19:42:00,
2013-01-05 14:47:00,39.4,25.5,30.19,NNE,27,0.0,8.0,57,0.02,,,0.07,VWS V14.00,2013-01-05 19:47:00,
2013-01-05 14:52:00,39.3,24.9,30.20,SSE,167,0.0,8.0,56,0.02,,,0.07,VWS V14.00,2013-01-05 19:52:00,
2013-01-05 14:57:00,39.3,24.9,30.21,SSE,158,5.0,8.0,56,0.02,,,0.07,VWS V14.00,2013-01-05 19:57:00,
2013-01-05 15:00:00,39.3,24.9,30.21,South,174,0.0,8.0,56,0.02,,,0.07,VWS V14.00,2013-01-05 20:00:00,
2013-01-05 15:02:00,39.2,25.3,30.21,SSW,195,0.0,4.0,57,0.01,,,0.07,VWS V14.00,2013-01-05 20:02:00,
2013-01-05 15:08:00,39.1,25.6,30.21,East,100,1.0,4.0,58,0.01,,,0.07,VWS V14.00,2013-01-05 20:08:00,
2013-01-05 15:13:00,38.8,24.9,30.21,WNW,282,0.0,4.0,57,0.01,,,0.07,VWS V14.00,2013-01-05 20:13:00,
2013-01-05 15:18:00,38.7,25.2,30.21,WNW,282,0.0,4.0,58,0.01,,,0.07,VWS V14.00,2013-01-05 20:18:00,
2013-01-05 15:23:00,38.6,25.1,30.21,SW,221,0.0,4.0,58,0.01,,,0.07,VWS V14.00,2013-01-05 20:23:00,
2013-01-05 15:28:00,38.3,25.6,30.20,SW,232,0.0,4.0,60,0.01,,,0.07,VWS V14.00,2013-01-05 20:28:00,
2013-01-05 15:30:00,38.2,25.5,30.20,WNW,297,2.0,4.0,60,0.01,,,0.07,VWS V14.00,2013-01-05 20:30:00,
2013-01-05 15:33:00,37.9,25.3,30.20,North,351,2.0,4.0,60,0.01,,,0.07,VWS V14.00,2013-01-05 20:33:00,
2013-01-05 15:38:00,37.6,25.4,30.21,NNW,337,0.0,4.0,61,0.01,,,0.07,VWS V14.00,2013-01-05 20:38:00,
2013-01-05 15:43:00,37.3,25.1,30.22,NNE,24,0.0,4.0,61,0.01,,,0.07,VWS V14.00,2013-01-05 20:43:00,
2013-01-05 15:48:00,37.0,25.2,30.22,NNE,24,0.0,4.0,62,0.01,,,0.07,VWS V14.00,2013-01-05 20:48:00,
2013-01-05 15:53:00,36.6,25.2,30.22,NNE,21,0.0,4.0,63,0.01,,,0.07,VWS V14.00,2013-01-05 20:53:00,
2013-01-05 15:59:00,36.2,25.6,30.22,NNE,21,0.0,4.0,65,0.01,,,0.07,VWS V14.00,2013-01-05 20:59:00,
2013-01-05 16:00:00,36.1,25.5,30.22,NNE,21,0.0,4.0,65,0.01,,,0.07,VWS V14.00,2013-01-05 21:00:00,
2013-01-05 16:04:00,35.6,25.4,30.21,NNE,21,0.0,1.0,66,0.00,,,0.07,VWS V14.00,2013-01-05 21:04:00,
2013-01-05 16:09:00,35.1,25.6,30.21,NNE,21,0.0,1.0,68,0.00,,,0.07,VWS V14.00,2013-01-05 21:09:00,
2013-01-05 16:14:00,34.4,25.3,30.21,NNE,21,0.0,1.0,69,0.00,,,0.07,VWS V14.00,2013-01-05 21:14:00,
2013-01-05 16:19:00,33.7,25.3,30.21,NNE,21,0.0,1.0,71,0.00,,,0.07,VWS V14.00,2013-01-05 21:19:00,
2013-01-05 16:24:00,33.3,25.3,30.20,NNE,21,0.0,1.0,72,0.00,,,0.07,VWS V14.00,2013-01-05 21:24:00,
2013-01-05 16:29:00,32.9,25.2,30.21,NNE,21,1.0,1.0,73,0.00,,,0.07,VWS V14.00,2013-01-05 21:29:00,
2013-01-05 16:30:00,32.9,25.2,30.21,NNE,21,1.0,1.0,73,0.00,,,0.07,VWS V14.00,2013-01-05 21:30:00,
2013-01-05 16:34:00,32.6,25.2,30.21,NNE,21,0.0,1.0,74,0.00,,,0.07,VWS V14.00,2013-01-05 21:34:00,
2013-01-05 16:39:00,32.2,25.2,30.22,NNE,21,0.0,1.0,75,0.00,,,0.07,VWS V14.00,2013-01-05 21:39:00,
2013-01-05 16:45:00,31.7,25.0,30.22,NNE,21,0.0,1.0,76,0.00,,,0.07,VWS V14.00,2013-01-05 21:45:00,
2013-01-05 16:50:00,31.5,24.8,30.22,NNE,21,0.0,1.0,76,0.00,,,0.07,VWS V14.00,2013-01-05 21:50:00,
2013-01-05 16:55:00,31.1,24.8,30.23,NNE,21,0.0,1.0,77,0.00,,,0.07,VWS V14.00,2013-01-05 21:55:00,
2013-01-05 17:00:00,30.6,24.9,30.23,NNE,21,0.0,0.0,79,0.00,,,0.07,VWS V14.00,2013-01-05 22:00:00,
2013-01-05 17:05:00,30.2,24.5,30.23,NNE,21,0.0,2.0,79,0.00,,,0.07,VWS V14.00,2013-01-05 22:05:00,
2013-01-05 17:10:00,29.9,24.5,30.23,NNE,21,0.0,2.0,80,0.00,,,0.07,VWS V14.00,2013-01-05 22:10:00,
2013-01-05 17:15:00,29.5,24.4,30.23,NNE,21,0.0,2.0,81,0.00,,,0.07,VWS V14.00,2013-01-05 22:15:00,
2013-01-05 17:21:00,29.0,24.2,30.23,NNE,21,0.0,2.0,82,0.00,,,0.07,VWS V14.00,2013-01-05 22:21:00,
2013-01-05 17:26:00,28.7,23.9,30.23,NNE,21,0.0,2.0,82,0.00,,,0.07,VWS V14.00,2013-01-05 22:26:00,
2013-01-05 17:30:00,28.5,23.7,30.23,NNE,21,0.0,2.0,82,0.00,,,0.07,VWS V14.00,2013-01-05 22:30:00,
2013-01-05 17:31:00,28.5,24.0,30.23,NNE,21,0.0,0.0,83,0.00,,,0.07,VWS V14.00,2013-01-05 22:31:00,
2013-01-05 17:36:00,28.2,23.7,30.24,NNE,21,0.0,0.0,83,0.00,,,0.07,VWS V14.00,2013-01-05 22:36:00,
2013-01-05 17:41:00,27.8,23.9,30.24,NNE,21,0.0,1.0,85,0.00,,,0.07,VWS V14.00,2013-01-05 22:41:00,
2013-01-05 17:46:00,27.5,23.6,30.25,NNE,21,0.0,1.0,85,0.00,,,0.07,VWS V14.00,2013-01-05 22:46:00,
2013-01-05 17:51:00,27.3,23.4,30.25,NNE,21,0.0,1.0,85,0.00,,,0.07,VWS V14.00,2013-01-05 22:51:00,
2013-01-05 17:56:00,27.0,23.4,30.26,NNE,21,0.0,1.0,86,0.00,,,0.07,VWS V14.00,2013-01-05 22:56:00,
2013-01-05 18:00:00,26.9,23.3,30.25,NNE,21,0.0,1.0,86,0.00,,,0.07,VWS V14.00,2013-01-05 23:00:00,
2013-01-05 18:01:00,26.7,23.1,30.25,NNE,21,0.0,0.0,86,0.00,,,0.07,VWS V14.00,2013-01-05 23:01:00,
2013-01-05 18:07:00,26.6,23.3,30.25,NNE,21,0.0,0.0,87,0.00,,,0.07,VWS V14.00,2013-01-05 23:07:00,
2013-01-05 18:12:00,26.5,23.2,30.25,NNE,21,0.0,0.0,87,0.00,,,0.07,VWS V14.00,2013-01-05 23:12:00,
2013-01-05 18:17:00,26.3,23.0,30.25,NNE,21,0.0,1.0,87,0.00,,,0.07,VWS V14.00,2013-01-05 23:17:00,
2013-01-05 18:22:00,26.3,23.2,30.25,NNE,21,0.0,2.0,88,0.00,,,0.07,VWS V14.00,2013-01-05 23:22:00,
2013-01-05 18:27:00,26.1,22.8,30.26,NNE,21,0.0,2.0,87,0.00,,,0.07,VWS V14.00,2013-01-05 23:27:00,
2013-01-05 18:30:00,26.0,22.7,30.26,NNE,21,0.0,2.0,87,0.00,,,0.07,VWS V14.00,2013-01-05 23:30:00,
2013-01-05 18:32:00,25.9,22.6,30.26,NNE,21,0.0,2.0,87,0.00,,,0.07,VWS V14.00,2013-01-05 23:32:00,
2013-01-05 18:37:00,25.8,22.7,30.26,NNE,21,0.0,2.0,88,0.00,,,0.07,VWS V14.00,2013-01-05 23:37:00,
2013-01-05 18:42:00,25.8,22.5,30.25,NNE,21,0.0,2.0,87,0.00,,,0.07,VWS V14.00,2013-01-05 23:42:00,
2013-01-05 18:47:00,25.6,22.3,30.25,NNE,21,0.0,2.0,87,0.00,,,0.07,VWS V14.00,2013-01-05 23:47:00,
2013-01-05 18:53:00,25.6,22.5,30.25,NNE,18,0.0,2.0,88,0.00,,,0.07,VWS V14.00,2013-01-05 23:53:00,
2013-01-05 18:58:00,25.6,22.3,30.26,NNE,18,0.0,2.0,87,0.00,,,0.07,VWS V14.00,2013-01-05 23:58:00,
2013-01-05 19:00:00,25.6,22.3,30.25,NNE,18,0.0,2.0,87,0.00,,,0.07,VWS V14.00,2013-01-06 00:00:00,
2013-01-05 19:03:00,25.6,22.3,30.25,North,360,0.0,3.0,87,0.00,,,0.07,VWS V14.00,2013-01-06 00:03:00,
2013-01-05 19:08:00,25.7,22.4,30.25,North,360,0.0,3.0,87,0.00,,,0.07,VWS V14.00,2013-01-06 00:08:00,
2013-01-05 19:13:00,25.4,22.1,30.23,North,360,2.0,3.0,87,0.00,,,0.07,VWS V14.00,2013-01-06 00:13:00,
2013-01-05 19:18:00,25.1,21.8,30.24,North,360,0.0,3.0,87,0.00,,,0.07,VWS V14.00,2013-01-06 00:18:00,
2013-01-05 19:30:00,24.8,21.8,30.24,North,0,0.0,3.0,88,0.00,,,0.07,VWS V14.00,2013-01-06 00:30:00,
2013-01-05 20:00:00,24.0,21.0,30.24,North,0,0.0,2.0,88,0.00,,,0.07,VWS V14.00,2013-01-06 01:00:00,
2013-01-05 20:30:00,23.1,20.4,30.25,North,0,0.0,2.0,89,0.00,,,0.07,VWS V14.00,2013-01-06 01:30:00,
2013-01-05 21:00:00,22.1,19.6,30.24,North,0,0.0,2.0,90,0.00,,,0.07,VWS V14.00,2013-01-06 02:00:00,
2013-01-05 21:30:00,21.3,19.1,30.23,North,0,0.0,2.0,91,0.00,,,0.07,VWS V14.00,2013-01-06 02:30:00,
2013-01-05 22:00:00,21.7,19.5,30.22,North,0,0.0,2.0,91,0.00,,,0.07,VWS V14.00,2013-01-06 03:00:00,
2013-01-05 22:30:00,22.4,19.9,30.21,NW,315,1.0,4.0,90,0.00,,,0.07,VWS V14.00,2013-01-06 03:30:00,
2013-01-05 23:00:00,22.9,20.4,30.19,NNW,338,1.0,5.0,90,0.00,,,0.07,VWS V14.00,2013-01-06 04:00:00,
2013-01-05 23:30:00,23.7,20.7,30.20,NW,315,1.0,4.0,88,0.00,,,0.07,VWS V14.00,2013-01-06 04:30:00,